Weather History for West Palm Beach, FL

Change the Weather History Date:

Thursday, August 22, 2013

  Actual Average Record
Temperature  
Mean Temperature 88 °F 83 °F  
Max Temperature 92 °F 90 °F 94 °F (1950)
Min Temperature 83 °F 76 °F 67 °F (1921)
Degree Days  
Heating Degree Days 0 0  
Month to date heating degree days 0 0  
Since 1 June heating degree days 0 0  
Since 1 July heating degree days 0 0  
Cooling Degree Days 23 18  
Month to date cooling degree days 461 396  
Year to date cooling degree days 2711 2544  
Since 1 June cooling degree days 1526 1435  
Growing Degree Days 38 (Base 50)    
Moisture  
Dew Point 74 °F    
Average Humidity 65    
Maximum Humidity 74    
Minimum Humidity 56    
Precipitation  
Precipitation 0.00 in 0.28 in 1.40 in (1966)
Month to date precipitation 3.06 5.47  
Year to date precipitation 46.58 38.24  
Snow  
Snow 0.00 in - - ()
Month to date snowfall 0.0  
Since 1 June snowfall 0.0  
Since 1 July snowfall 0.0  
Snow Depth 0.00 in    
Sea Level Pressure  
Sea Level Pressure 30.03 in    
Wind  
Wind Speed 11 mph (ESE)    
Max Wind Speed 18 mph    
Max Gust Speed 24 mph    
Visibility 10 miles    
Events      
T = Trace of Precipitation, MM = Missing Value Source: NWS Daily Summary

Daily Weather History Graph

Daily Weather History Graph

Search for Another Location

Airport:

Trip Planner

Search our weather history database for the weather conditions in past years. The results will help you decide how hot, cold, wet, or windy it might be!

Date:

Astronomy

Aug. 22, 2013 Rise Set
Actual Time 6:55 AM EDT 7:50 PM EDT
Civil Twilight 6:31 AM EDT 8:14 PM EDT
Nautical Twilight 6:03 AM EDT 8:42 PM EDT
Astronomical Twilight 5:34 AM EDT 9:11 PM EDT
Moon 8:52 PM EDT (8/22) 8:27 AM EDT (8/22)
Length of Visible Light 13h 42m
Length of Day
12h 54m
Waning Gibbous, 97% of the Moon is Illuminated
Aug 22
Waning Gibbous
Aug 28
Last Quarter
Sep 5
New
Sep 12
First Quarter
Sep 19
Full

Hourly Weather History & Observations

Time (EDT) Temp. Heat Index Dew Point Humidity Pressure Visibility Wind Dir Wind Speed Gust Speed Precip Events Conditions
12:53 AM 84.0 °F 91.9 °F 75.0 °F 74% 30.07 in 10.0 mi SE 5.8 mph - N/A   Mostly Cloudy
1:53 AM 84.0 °F 91.2 °F 73.9 °F 72% 30.05 in 10.0 mi ESE 9.2 mph - N/A   Mostly Cloudy
2:53 AM 84.0 °F 91.9 °F 75.0 °F 74% 30.04 in 10.0 mi ESE 9.2 mph - N/A   Mostly Cloudy
3:53 AM 84.0 °F 91.2 °F 73.9 °F 72% 30.03 in 10.0 mi ESE 10.4 mph - N/A   Mostly Cloudy
4:53 AM 84.0 °F 91.2 °F 73.9 °F 72% 30.01 in 10.0 mi ESE 11.5 mph - N/A   Mostly Cloudy
5:53 AM 84.0 °F 91.9 °F 75.0 °F 74% 30.01 in 10.0 mi ESE 10.4 mph - N/A   Mostly Cloudy
6:53 AM 84.0 °F 91.2 °F 73.9 °F 72% 30.03 in 10.0 mi ESE 8.1 mph - N/A   Mostly Cloudy
7:53 AM 84.9 °F 92.1 °F 73.9 °F 69% 30.04 in 10.0 mi ESE 8.1 mph - N/A   Mostly Cloudy
8:42 AM 86.0 °F 93.4 °F 73.4 °F 66% 30.05 in 10.0 mi East 11.5 mph - N/A   Mostly Cloudy
8:53 AM 87.1 °F 96.3 °F 75.0 °F 67% 30.05 in 10.0 mi ESE 11.5 mph - N/A   Mostly Cloudy
9:44 AM 87.8 °F 97.6 °F 75.2 °F 66% 30.06 in 10.0 mi East 15.0 mph - N/A   Mostly Cloudy
9:53 AM 88.0 °F 96.5 °F 73.9 °F 63% 30.06 in 10.0 mi ESE 15.0 mph - N/A   Mostly Cloudy
10:53 AM 90.0 °F 100.2 °F 75.0 °F 61% 30.06 in 10.0 mi ESE 17.3 mph - N/A   Scattered Clouds
11:51 AM 89.6 °F 99.8 °F 75.2 °F 62% 30.06 in 10.0 mi ESE 13.8 mph - N/A   Mostly Cloudy
11:53 AM 90.0 °F 99.0 °F 73.9 °F 59% 30.06 in 10.0 mi ESE 15.0 mph - N/A   Mostly Cloudy
12:53 PM 90.0 °F 100.2 °F 75.0 °F 61% 30.05 in 10.0 mi ESE 15.0 mph - N/A   Mostly Cloudy
1:31 PM 91.4 °F 100.1 °F 73.4 °F 55% 30.03 in 10.0 mi ESE 16.1 mph 23.0 mph N/A   Mostly Cloudy
1:53 PM 91.0 °F 99.3 °F 73.0 °F 55% 30.03 in 10.0 mi ESE 16.1 mph - N/A   Mostly Cloudy
2:53 PM 91.0 °F 99.3 °F 73.0 °F 55% 30.01 in 10.0 mi East 15.0 mph - N/A   Mostly Cloudy
3:53 PM 91.0 °F 99.3 °F 73.0 °F 55% 29.99 in 10.0 mi East 15.0 mph - N/A   Scattered Clouds
4:53 PM 89.1 °F 97.0 °F 73.0 °F 59% 29.99 in 10.0 mi ESE 10.4 mph - N/A   Scattered Clouds
5:53 PM 88.0 °F 95.6 °F 73.0 °F 61% 29.97 in 10.0 mi East 12.7 mph - N/A   Scattered Clouds
6:53 PM 86.0 °F 92.2 °F 72.0 °F 63% 29.97 in 10.0 mi East 9.2 mph - N/A   Scattered Clouds
7:53 PM 86.0 °F 93.0 °F 73.0 °F 65% 29.98 in 10.0 mi East 8.1 mph - N/A   Mostly Cloudy
8:53 PM 86.0 °F 93.8 °F 73.9 °F 67% 30.00 in 10.0 mi East 8.1 mph - N/A   Scattered Clouds
9:53 PM 84.9 °F 90.7 °F 72.0 °F 65% 30.01 in 10.0 mi ESE 9.2 mph - N/A   Scattered Clouds
10:53 PM 84.9 °F 92.1 °F 73.9 °F 69% 30.02 in 10.0 mi ESE 9.2 mph - N/A   Scattered Clouds
11:53 PM 82.9 °F 88.8 °F 73.0 °F 72% 30.01 in 10.0 mi SE 5.8 mph - N/A   Mostly Cloudy